Location: Evergreen Manor
(41.4083°N, 81.4939°W)
Time: 18:23:50
(UTC+00:00)

USA 234 - Pass Details

Date: 11 December 2019
Orbit: 1099 x 1108 km, 123.0° (Epoch: 16 January)

Event Time Altitude Azimuth Distance (km) Brightness Sun altitude
Rises 09:25:07 0° 48° (NE) 3,923 6.7 -36.0°
Reaches altitude 10° 09:27:37 10° 50° (NE) 2,964 6.0 -35.5°
Enters shadow 09:33:30 70° 84° (E) 1,165 3.4 -34.4°
